THOR ABLESTAR DEB, 658

Orbit data source: Space-Track

THOR ABLESTAR DEB, 658 is space debris in LEO originally from a launch on Thu, 29 Jun 1961 UTC launched from the Air Force Eastern Test Range (AFETR). Debris objects in space refer to the collection of defunct objects orbiting the Earth. Examples of debris include non-operational satellites, rocket bodies, and fragments generated from explosions, collisions, or faulty payload assembly.

Loading next visibility...
Identifier
658, 1961-015HK
Orbit
LEO
Country
Flag of USUS
Related business
Manufacturer
Unknown
Mission
Spacecraft
Bus & Motor
Unknown
Mass
Unknown
Launch date (UTC)
1961-06-29 (65 years ago)
Launch vehicle
Unknown
Launch site
Air Force Eastern Test Range (AFETR)
Object type
Payload
Rocket body
Debris
Shape & HBR
Unknown shape, 0.1 m
Radar Cross Section
Medium (>0.1 m² and <1 m²)

Expand to show TLE details & history
Last TLE update: 7 hours ago

TLE from 7 hours ago
0 THOR ABLESTAR DEB
1 00658U 61015HK  26174.93750417 -.00000555  00000-0 -59185-3 0  9996
2 00658  65.8625 117.6385 0354869 212.2705 145.6185 13.41832281 60502
Epoch: 2026-06-23T22:30Z
TLE epoch observation values (Epoch: 2026-06-23T22:30:00.360Z)
Latitude
-0.00001°
Longitude
-131.96491°
Altitude
1,326.4 km
Speed
7.087 km/s
True Right ascension
07h 50m 33s
True Declination
0° 00' 00"
Sunlit
Object was in daylight at epoch
Visualization orbit readout
Latitude
Unknown
Longitude
Unknown
Altitude
Unknown
Speed
Unknown
Apparent Right ascension
Unknown
Apparent Declination
Unknown
Sunlit
N/A
Visualization observer readout
Local Sidereal Time
16:35:53
Azimuth
Unknown
Elevation
Unknown
Doppler factor
Unknown
Orbital elements
Apogee altitude
1,366.408 km
Perigee altitude
835.585 km
Semi-major axis
7,479.134 km
Eccentricity
0.03549
Inclination
65.8625°
RAAN
117.6385°
Arg. of periapsis
212.2705°
True anomaly
147.8331°
Mean anomaly
145.6185°
Eccentric anomaly
146.7338°
Mean motion
3.35557 °/min
Orbital period
107.28 mins
BSTAR
-0.00059185

Documentation

Showing up to 5 results
|